Flag for Bosnia-Herzegovina Weather past 2 weeks in Sarajevo, Bosnia-Herzegovina

Now
75 °F

Passing clouds.


Feels Like: 78 °F
Forecast: 55 / 78 °F
Wind: 3 mph from North

Location: Sarajevo / Butmir

Current Time: Jul 24, 2014 at 1:37:37 PM

Latest Report: Jul 24, 2014 at 1:00 PM


Visibility: N/A

Pressure: 29.92 "Hg

Humidity: 50%

Dew point: 55 °F

Location of SarajevoLocation

Historic Weather in Sarajevo — Graph

°F

Sarajevo temperature yesterday

Maximum temperature yesterday: 77 °F (at 2:30 PM)
Minimum temperature yesterday: 57 °F (at 3:00 AM)
Average temperature yesterday: 66 °F

Past Weeks' High & Low Weather Summary

 TemperatureHumidityPressure
High86 °F (Jul 20, 4:00 PM)100% (Jul 12, 2:00 AM)30.15 "Hg (Jul 12, 2:00 AM)
Low50 °F (Jul 14, 5:30 AM)33% (Jul 20, 4:00 PM)29.71 "Hg (Jul 10, 8:30 AM)
Average67 °F75%29.96 "Hg
* Reported Jul 9 12:00 Noon — Jul 24 12:30 PM, Sarajevo, Weather by CustomWeather, © 2014

Note: Actual official high and low records may vary slightly from our data, if they occured in-between our weather recording intervals... More about our weather records

Advertising

Sarajevo weather history for previous 24 hours

 ConditionsComfort  
Time TempWeatherWind HumidityBarometerVisibility
12:30 PM
Jul 24
75 °FPassing clouds.5 mph57%29.92 "HgN/A
12:00 PM73 °FPassing clouds.5 mph61%29.92 "HgN/A
11:30 AM72 °FPassing clouds.3 mph69%29.92 "HgN/A
11:00 AM72 °FPassing clouds.2 mph65%29.95 "HgN/A
10:30 AM68 °FPassing clouds.2 mph73%29.95 "HgN/A
10:00 AM66 °FPassing clouds.5 mph83%29.95 "Hg5 mi
9:30 AM66 °FScattered clouds.3 mph83%29.95 "Hg4 mi
9:00 AM64 °FScattered clouds.1 mph83%29.95 "Hg4 mi
8:30 AM63 °FFog.1 mph88%29.95 "Hg3 mi
8:00 AM61 °FFog.No wind94%29.95 "Hg3 mi
7:30 AM61 °FPartly sunny.No wind94%29.95 "Hg4 mi
7:00 AM61 °FPartly sunny.1 mph94%29.95 "Hg4 mi
6:30 AM59 °FPartly sunny.1 mph100%29.92 "Hg4 mi
6:00 AM59 °FPassing clouds.2 mph94%29.92 "Hg4 mi
5:30 AM59 °FPassing clouds.1 mph94%29.92 "Hg4 mi
5:00 AM57 °FPassing clouds.2 mph100%29.92 "Hg5 mi
4:00 AM59 °FPassing clouds.No wind94%29.92 "HgN/A
3:00 AM59 °FPassing clouds.2 mph94%29.92 "HgN/A
2:00 AM61 °FPassing clouds.1 mph94%29.92 "HgN/A
1:00 AM63 °FPassing clouds.1 mph88%29.92 "HgN/A
12:00 AM64 °FPassing clouds.2 mph83%29.92 "HgN/A
11:00 PM
Jul 23
64 °FPassing clouds.No wind88%29.92 "HgN/A
10:30 PM66 °FPassing clouds.2 mph83%29.92 "HgN/A
10:00 PM66 °FPassing clouds.3 mph83%29.92 "HgN/A
9:30 PM66 °FPassing clouds.3 mph83%29.92 "HgN/A
9:00 PM66 °FPartly sunny.3 mph78%29.89 "HgN/A
8:30 PM66 °FPartly sunny.5 mph78%29.89 "HgN/A
8:00 PM68 °FPartly sunny.6 mph78%29.89 "HgN/A
7:30 PM68 °FPartly sunny.6 mph78%29.89 "HgN/A
7:00 PM68 °FScattered clouds.5 mph73%29.89 "HgN/A
6:30 PM68 °FScattered clouds.5 mph78%29.89 "HgN/A
6:00 PM68 °FScattered clouds.7 mph73%29.86 "HgN/A
5:30 PM70 °FScattered clouds.6 mph69%29.86 "HgN/A
5:00 PM70 °FScattered clouds.12 mph64%29.86 "HgN/A
4:30 PM73 °FScattered clouds.12 mph61%29.83 "HgN/A
4:00 PM73 °FScattered clouds.7 mph61%29.83 "HgN/A
3:00 PM73 °FScattered clouds.5 mph61%29.83 "HgN/A
2:30 PM77 °FScattered clouds.5 mph54%29.83 "HgN/A
2:00 PM70 °FScattered clouds.6 mph69%29.83 "HgN/A
1:00 PM72 °FPartly sunny.6 mph65%29.83 "HgN/A
Weather by CustomWeather, © 2014

See weather overviewHow to use our weather pages